When you browse on this site, cookies collect data to enhance your experience and personalize the content and advertising you see.
Visit our Privacy Policy to learn more. By continuing to use the site, you agree to this use of cookies and data.
  • In Deutschland
  • Länderverzeichnis
  • Für 7 Tage
  • Wassertemperatur
  • Wetterkarte
  • Widgets
  • user-avatar
    Anmelden

    Stündliche Wetter Namibe

    Heute, 16 September, Montag

    Zeit Temperatur Niederschläge Wind Luftdruck Luftfeuchtigkeit
    00:00 +17°C° 0 mm 2 m/S 758 mmHg 90%
    01:00 +20°C° 0 mm 1 m/S 758 mmHg 90%
    02:00 +20°C° 0 mm 1 m/S 758 mmHg 89%
    03:00 +20°C° 0 mm 1 m/S 758 mmHg 89%
    04:00 +20°C° 0 mm 1 m/S 758 mmHg 88%
    05:00 +21°C° 0 mm 1 m/S 758 mmHg 87%
    06:00 +21°C° 0 mm 1 m/S 759 mmHg 86%
    07:00 +21°C° 0 mm 1 m/S 759 mmHg 85%
    08:00 +23°C° 0 mm 2 m/S 759 mmHg 75%
    09:00 +25°C° 0 mm 2 m/S 759 mmHg 65%
    10:00 +27°C° 0 mm 2 m/S 758 mmHg 56%
    11:00 +28°C° 0 mm 3 m/S 758 mmHg 55%
    12:00 +28°C° 0 mm 4 m/S 757 mmHg 55%
    13:00 +29°C° 0 mm 5 m/S 756 mmHg 54%
    14:00 +28°C° 0 mm 5 m/S 756 mmHg 58%
    15:00 +27°C° 0 mm 5 m/S 755 mmHg 62%
    16:00 +26°C° 0 mm 5 m/S 755 mmHg 66%
    17:00 +23°C° 0 mm 4 m/S 756 mmHg 72%
    18:00 +22°C° 0 mm 3 m/S 757 mmHg 78%
    19:00 +20°C° 0 mm 2 m/S 757 mmHg 85%
    20:00 +21°C° 0 mm 1 m/S 758 mmHg 87%
    21:00 +20°C° 0 mm 1 m/S 759 mmHg 88%
    22:00 +18°C° 0 mm 0 m/S 759 mmHg 90%
    23:00 +20°C° 0 mm 1 m/S 759 mmHg 91%

    Morgen, 17 September, Dienstag

    Zeit Temperatur Niederschläge Wind Luftdruck Luftfeuchtigkeit
    00:00 +19°C° 0 mm 2 m/S 758 mmHg 92%
    01:00 +19°C° 0 mm 2 m/S 758 mmHg 93%
    02:00 +19°C° 0 mm 2 m/S 758 mmHg 94%
    03:00 +19°C° 0 mm 2 m/S 758 mmHg 94%
    04:00 +20°C° 0 mm 1 m/S 757 mmHg 95%
    05:00 +20°C° 0 mm 1 m/S 758 mmHg 93%
    06:00 +21°C° 0 mm 1 m/S 758 mmHg 91%
    07:00 +22°C° 0 mm 1 m/S 758 mmHg 89%
    08:00 +23°C° 0 mm 1 m/S 758 mmHg 80%
    09:00 +25°C° 0 mm 1 m/S 758 mmHg 72%
    10:00 +27°C° 0 mm 2 m/S 758 mmHg 64%
    11:00 +28°C° 0 mm 3 m/S 757 mmHg 62%
    12:00 +28°C° 0 mm 4 m/S 756 mmHg 59%
    13:00 +29°C° 0 mm 5 m/S 755 mmHg 57%
    14:00 +28°C° 0 mm 5 m/S 755 mmHg 61%
    15:00 +27°C° 0 mm 5 m/S 755 mmHg 65%
    16:00 +26°C° 0 mm 5 m/S 755 mmHg 69%
    17:00 +25°C° 0 mm 4 m/S 755 mmHg 74%
    18:00 +24°C° 0 mm 2 m/S 756 mmHg 79%
    19:00 +23°C° 0 mm 1 m/S 757 mmHg 85%
    20:00 +23°C° 0 mm 1 m/S 758 mmHg 84%
    21:00 +23°C° 0 mm 1 m/S 758 mmHg 84%
    22:00 +23°C° 0 mm 1 m/S 759 mmHg 84%
    23:00 +21°C° 0 mm 2 m/S 758 mmHg 86%

    übermorgen, 18 September, Mittwoch

    Zeit Temperatur Niederschläge Wind Luftdruck Luftfeuchtigkeit
    00:00 +21°C° 0 mm 2 m/S 758 mmHg 89%
    01:00 +20°C° 0 mm 3 m/S 758 mmHg 91%
    02:00 +20°C° 0 mm 2 m/S 758 mmHg 92%
    03:00 +20°C° 0 mm 2 m/S 758 mmHg 92%
    04:00 +20°C° 0 mm 2 m/S 758 mmHg 93%
    05:00 +20°C° 0 mm 2 m/S 758 mmHg 92%
    06:00 +21°C° 0 mm 2 m/S 758 mmHg 91%
    07:00 +21°C° 0 mm 2 m/S 758 mmHg 90%
    08:00 +24°C° 0 mm 2 m/S 758 mmHg 81%
    09:00 +26°C° 0 mm 3 m/S 758 mmHg 72%
    10:00 +27°C° 0 mm 4 m/S 758 mmHg 62%
    11:00 +28°C° 0 mm 4 m/S 757 mmHg 62%
    12:00 +28°C° 0 mm 5 m/S 757 mmHg 61%
    13:00 +28°C° 0 mm 5 m/S 756 mmHg 60%
    14:00 +27°C° 0 mm 6 m/S 756 mmHg 63%
    15:00 +27°C° 0 mm 6 m/S 755 mmHg 65%
    16:00 +26°C° 0 mm 6 m/S 755 mmHg 68%
    17:00 +25°C° 0 mm 5 m/S 756 mmHg 73%
    18:00 +24°C° 0 mm 3 m/S 757 mmHg 79%
    19:00 +23°C° 0 mm 2 m/S 758 mmHg 84%
    20:00 +23°C° 0 mm 2 m/S 758 mmHg 83%
    21:00 +23°C° 0 mm 1 m/S 758 mmHg 81%
    22:00 +21°C° 0 mm 0 m/S 759 mmHg 80%
    23:00 +22°C° 0 mm 1 m/S 758 mmHg 83%

    19 September, Donnerstag

    Zeit Temperatur Niederschläge Wind Luftdruck Luftfeuchtigkeit
    00:00 +22°C° 0 mm 1 m/S 758 mmHg 87%
    01:00 +20°C° 0 mm 2 m/S 757 mmHg 90%
    02:00 +21°C° 0 mm 1 m/S 757 mmHg 92%
    03:00 +20°C° 0 mm 1 m/S 758 mmHg 93%
    04:00 +20°C° 0 mm 1 m/S 758 mmHg 95%
    05:00 +20°C° 0 mm 1 m/S 758 mmHg 93%
    06:00 +21°C° 0 mm 1 m/S 758 mmHg 90%
    07:00 +22°C° 0 mm 1 m/S 759 mmHg 88%
    08:00 +23°C° 0 mm 2 m/S 759 mmHg 80%
    09:00 +25°C° 0 mm 3 m/S 759 mmHg 72%
    10:00 +27°C° 0 mm 4 m/S 759 mmHg 65%
    11:00 +27°C° 0 mm 4 m/S 758 mmHg 64%
    12:00 +27°C° 0 mm 5 m/S 757 mmHg 63%
    13:00 +28°C° 0 mm 5 m/S 757 mmHg 62%
    14:00 +27°C° 0 mm 5 m/S 757 mmHg 65%
    15:00 +26°C° 0 mm 5 m/S 757 mmHg 69%
    16:00 +25°C° 0 mm 5 m/S 756 mmHg 72%
    17:00 +23°C° 0 mm 4 m/S 757 mmHg 75%
    18:00 +24°C° 0 mm 2 m/S 758 mmHg 78%
    19:00 +23°C° 0 mm 1 m/S 759 mmHg 81%
    20:00 +22°C° 0 mm 1 m/S 759 mmHg 85%
    21:00 +21°C° 0 mm 1 m/S 760 mmHg 89%
    22:00 +21°C° 0 mm 1 m/S 760 mmHg 92%
    23:00 +20°C° 0 mm 1 m/S 760 mmHg 93%

    20 September, Freitag

    Zeit Temperatur Niederschläge Wind Luftdruck Luftfeuchtigkeit
    00:00 +20°C° 0 mm 1 m/S 759 mmHg 94%
    01:00 +20°C° 0 mm 1 m/S 759 mmHg 95%
    02:00 +20°C° 0 mm 1 m/S 759 mmHg 96%
    03:00 +17°C° 0 mm 0 m/S 759 mmHg 96%
    04:00 +17°C° 0 mm 0 m/S 759 mmHg 96%
    05:00 +20°C° 0 mm 1 m/S 759 mmHg 93%
    06:00 +21°C° 0 mm 1 m/S 760 mmHg 90%
    07:00 +21°C° 0 mm 1 m/S 760 mmHg 87%
    08:00 +23°C° 0 mm 2 m/S 760 mmHg 76%
    09:00 +25°C° 0 mm 2 m/S 760 mmHg 65%
    10:00 +27°C° 0 mm 2 m/S 759 mmHg 54%
    11:00 +28°C° 0 mm 3 m/S 759 mmHg 54%
    12:00 +28°C° 0 mm 4 m/S 758 mmHg 53%
    13:00 +28°C° 0 mm 4 m/S 757 mmHg 53%
    14:00 +27°C° 0 mm 5 m/S 757 mmHg 56%
    15:00 +27°C° 0 mm 5 m/S 757 mmHg 59%
    16:00 +26°C° 0 mm 6 m/S 756 mmHg 62%
    17:00 +23°C° 0 mm 5 m/S 757 mmHg 70%
    18:00 +22°C° 0 mm 5 m/S 758 mmHg 79%
    19:00 +20°C° 0 mm 4 m/S 759 mmHg 88%
    20:00 +20°C° 0 mm 3 m/S 759 mmHg 88%
    21:00 +19°C° 0 mm 3 m/S 759 mmHg 89%
    22:00 +19°C° 0 mm 2 m/S 760 mmHg 90%
    23:00 +18°C° 0 mm 2 m/S 759 mmHg 91%

    21 September, Samstag

    Zeit Temperatur Niederschläge Wind Luftdruck Luftfeuchtigkeit
    00:00 +18°C° 0 mm 2 m/S 759 mmHg 92%
    01:00 +17°C° 0 mm 2 m/S 759 mmHg 93%
    02:00 +17°C° 0 mm 2 m/S 758 mmHg 94%
    03:00 +17°C° 0 mm 2 m/S 758 mmHg 95%
    04:00 +16°C° 0 mm 2 m/S 758 mmHg 96%
    05:00 +17°C° 0 mm 2 m/S 758 mmHg 94%
    06:00 +18°C° 0 mm 1 m/S 759 mmHg 92%
    07:00 +19°C° 0 mm 1 m/S 759 mmHg 89%
    08:00 +19°C° 0 mm 2 m/S 759 mmHg 81%
    09:00 +21°C° 0 mm 2 m/S 759 mmHg 73%
    10:00 +24°C° 0 mm 3 m/S 759 mmHg 65%
    11:00 +24°C° 0 mm 3 m/S 758 mmHg 63%
    12:00 +25°C° 0 mm 4 m/S 758 mmHg 60%
    13:00 +25°C° 0 mm 5 m/S 757 mmHg 58%
    14:00 +25°C° 0 mm 5 m/S 757 mmHg 60%
    15:00 +23°C° 0 mm 5 m/S 756 mmHg 63%
    16:00 +22°C° 0 mm 5 m/S 756 mmHg 66%
    17:00 +21°C° 0 mm 4 m/S 757 mmHg 72%
    18:00 +20°C° 0 mm 3 m/S 757 mmHg 78%
    19:00 +19°C° 0 mm 2 m/S 758 mmHg 84%
    20:00 +19°C° 0 mm 1 m/S 758 mmHg 86%
    21:00 +19°C° 0 mm 1 m/S 758 mmHg 87%
    22:00 +18°C° 0 mm 1 m/S 758 mmHg 89%
    23:00 +18°C° 0 mm 1 m/S 758 mmHg 90%
    Mehr zeigen